This demonstration page uses our WeatherBlox Daily Observations layout. Learn more.

Left ArrowRight Arrow

39.29038, -76.61219

Hourly Observations for August 4, 2015

Temp ( °F °C ) Dew Point ( °F °C ) Humidity (%) Winds ( mph kmh ) Pressure ( in mb ) Visibility ( mi km ) Precip ( " mm )
12:54 am 00:54 Mostly Cloudy 81 27.2 65 18.3 58 58 undefined N/A 29.82 1010 N/A 0.00 0.00
1:54 am 01:54 undefined 80 26.7 65 18.3 60 60 undefined N/A 29.83 1010 N/A 0.00 0.00
2:54 am 02:54 Clear 82 27.7 76 24.4 82 82 undefined N/A 30.88 1046 N/A 0.00 0.00
3:54 am 03:54 Mostly Clear 78 25.6 77 25 97 97 undefined N/A 29.85 1011 N/A 0.00 0.00
4:54 am 04:54 Mostly Cloudy 79 26.1 63 17.2 58 58 undefined N/A 29.79 1009 N/A 0.00 0.00
5:54 am 05:54 Mostly Clear 71 21.7 68 20 90 90 undefined N/A 29.89 1012 N/A 0.25 6.35
6:54 am 06:54 Mostly Sunny 71 21.7 67 19.4 87 87 undefined N/A 29.91 1013 N/A 0.00 0.00
7:54 am 07:54 undefined 74 23.3 68 20 82 82 undefined N/A 29.91 1013 N/A 0.00 0.00
8:54 am 08:54 undefined 75 23.9 67 19.4 76 76 undefined N/A 29.92 1013 N/A 0.00 0.00
9:54 am 09:54 undefined 81 27.2 67 19.4 62 62 undefined N/A 29.92 1013 N/A 0.00 0.00
10:54 am 10:54 undefined 84 28.9 67 19.4 57 57 undefined N/A 29.92 1013 N/A 0.00 0.00
11:54 am 11:54 undefined 87 30.6 67 19.4 51 51 undefined N/A 29.91 1013 N/A 0.00 0.00
12:54 pm 12:54 undefined 89 31.7 64 17.8 43 43 undefined N/A 29.91 1013 N/A 0.00 0.00
1:54 pm 13:54 undefined 90 32.2 63 17.2 41 41 undefined N/A 29.91 1013 N/A 0.00 0.00
2:54 pm 14:54 Partly Cloudy 80 26.6 39 4.1 24 24 undefined N/A 29.57 1001 N/A 0.00 0.00
3:54 pm 15:54 undefined 92 33.3 63 17.2 38 38 undefined N/A 29.88 1012 N/A 0.00 0.00
4:54 pm 16:54 undefined 91 32.8 64 17.8 41 41 undefined N/A 29.88 1012 N/A 0.00 0.00
5:54 pm 17:54 Mostly Sunny 83 28.5 74 23.1 73 73 undefined N/A 29.86 1011 N/A 0.00 0.00
6:54 pm 18:54 Mostly Cloudy 81 27.2 70 21.1 69 69 undefined N/A 29.88 1012 N/A 0.00 0.00
7:54 pm 19:54 undefined 76 24.4 68 20 77 77 undefined N/A 29.91 1013 N/A 0.08 2.03
8:54 pm 20:54 undefined 78 25.6 69 20.6 74 74 undefined N/A 29.90 1012 N/A 0.00 0.00
9:54 pm 21:54 undefined 78 25.6 69 20.6 74 74 undefined N/A 29.91 1013 N/A 0.00 0.00
10:54 pm 22:54 Mostly Clear 78 25.6 69 20.6 74 74 undefined N/A 29.91 1013 N/A 0.00 0.00
11:54 pm 23:54 Cloudy 81 27.2 39 3.9 22 22 undefined N/A 29.88 1012 N/A 0.00 0.00

Powered by AerisWeather